This demonstration page uses our WeatherBlox Daily Observations layout. Learn more.

Left ArrowRight Arrow

34.16533, -84.80231

Hourly Observations for March 17, 2020

Temp ( °F °C ) Dew Point ( °F °C ) Humidity (%) Winds ( mph kmh ) Pressure ( in mb ) Visibility ( mi km ) Precip ( " mm )
12:53 am 00:53 Cloudy 54 12.2 49 9.4 83 83 VRB 6 9 30.25 1024 8 13 0.00 0.00
1:53 am 01:53 Cloudy 53 11.7 49 9.4 86 86 E 3 6 30.24 1024 7 11 0.00 0.00
2:53 am 02:53 Cloudy with Mist and Fog 52 11.1 50 10 93 93 E 5 7 30.22 1024 3 5 0.00 0.00
3:06 am 03:06 Cloudy with Mist and Fog 52 11.1 50 10 93 93 E 5 7 30.25 1024 3 4 0.00 0.00
3:12 am 03:12 Cloudy with Mist and Fog 52 11.1 50 10 93 93 VRB 5 7 30.25 1024 3 5 0.00 0.00
3:53 am 03:53 Cloudy with Mist and Fog 52 11.1 49 9.4 89 89 VRB 5 7 30.22 1023 5 8 0.00 0.00
4:07 am 04:07 Cloudy with Mist and Fog 52 11.1 49 9.4 89 89 VRB 5 7 30.24 1024 6 10 0.00 0.00
4:53 am 04:53 Cloudy 52 11.1 49 9.4 89 89 E 3 6 30.19 1023 7 11 0.00 0.00
5:53 am 05:53 Cloudy with Mist and Fog 52 11.1 49 9.4 89 89 Calm 30.21 1023 5 8 0.00 0.00
6:30 am 06:30 Cloudy with Mist and Fog 52 11.1 50 10 93 93 VRB 3 6 30.24 1024 3 5 0.00 0.00
6:53 am 06:53 Cloudy with Mist and Fog 52 11.1 49 9.4 89 89 E 3 6 30.21 1023 3 5 0.00 0.00
7:53 am 07:53 Cloudy with Mist and Fog 52 11.1 49 9.4 89 89 ESE 5 7 30.22 1023 4 6 0.00 0.00
8:46 am 08:46 Cloudy with Mist and Fog 52 11.1 50 10 93 93 E 3 6 30.26 1025 3 4 0.00 0.00
8:53 am 08:53 Cloudy with Mist and Fog 52 11.1 50 10 93 93 ESE 5 7 30.23 1024 2 3 0.00 0.00
9:00 am 09:00 Cloudy with Mist and Fog 52 11.1 50 10 93 93 VRB 3 6 30.26 1025 2 3 0.00 0.00
9:28 am 09:28 Cloudy with Mist and Fog 53 11.7 50 10 89 89 ESE 3 6 30.26 1025 2 3 0.00 0.00
9:44 am 09:44 Cloudy with Mist and Fog 53 11.7 51 10.6 93 93 Calm 30.26 1025 4 6 0.00 0.00
9:53 am 09:53 Cloudy with Mist and Fog 53 11.7 51 10.6 93 93 Calm 30.25 1024 4 6 0.00 0.00
10:53 am 10:53 Cloudy with Mist and Fog 54 12.2 51 10.6 90 90 E 3 6 30.27 1025 3 5 0.00 0.00
11:53 am 11:53 Cloudy with Mist and Fog 55 12.8 52 11.1 90 90 VRB 3 6 30.28 1026 5 8 0.00 0.00
12:03 pm 12:03 Cloudy with Mist and Fog 56 13.3 52 11.1 87 87 NNE 7 11 30.30 1026 5 8 0.00 0.00
12:15 pm 12:15 Cloudy with Light Rain 55 12.8 52 11.1 90 90 NNE 5 7 30.30 1026 4 6 0.00 0.00
12:53 pm 12:53 Cloudy with Light Rain 56 13.3 52 11.1 87 87 NE 5 7 30.27 1025 6 10 0.00 0.00
1:53 pm 13:53 Cloudy 59 15 54 12.2 83 83 VRB 3 6 30.25 1024 8 13 0.00 0.00
2:23 pm 14:23 Cloudy 62 16.7 55 12.8 78 78 VRB 5 7 30.24 1024 9 14 0.00 0.00
2:37 pm 14:37 Cloudy 63 17.2 55 12.8 76 76 Calm 30.23 1024 10 16 0.00 0.00
2:53 pm 14:53 Cloudy 65 18.3 56 13.3 73 73 Calm 30.21 1023 10 16 0.00 0.00
3:53 pm 15:53 Mostly Cloudy 68 20 57 13.9 68 68 Calm 30.19 1022 10 16 0.00 0.00
4:53 pm 16:53 Sunny 71 21.7 58 14.4 63 63 NNE 3 6 30.18 1022 10 16 0.00 0.00
5:53 pm 17:53 Sunny 72 22.2 60 15.6 66 66 NE 5 7 30.17 1022 10 16 0.00 0.00
6:53 pm 18:53 Sunny 70 21.1 59 15 68 68 NNE 3 6 30.17 1022 10 16 0.00 0.00
7:53 pm 19:53 Clear 64 17.8 60 15.6 87 87 Calm 30.18 1022 10 16 0.00 0.00
8:53 pm 20:53 Clear 61 16.1 58 14.4 90 90 Calm 30.20 1023 9 14 0.00 0.00
9:53 pm 21:53 Clear 59 15 57 13.9 93 93 Calm 30.22 1023 8 13 0.00 0.00
10:53 pm 22:53 Clear 57 13.9 55 12.8 93 93 Calm 30.23 1024 7 11 0.00 0.00
11:53 pm 23:53 Clear with Mist and Fog 56 13.3 54 12.2 93 93 Calm 30.23 1024 6 10 0.00 0.00

Powered by AerisWeather